Location: Bouill�
(46.8755°N, 0.2047°W)
Time: 03:27:49
(UTC+00:00)

Daily predictions for brighter satellites

Satellite Brightness Start Highest point End
(mag) Time Altitude Azimuth Time Altitude Azimuth Time Altitude Azimuth
Lacrosse 5 rocket 4.3 00:01:01 10° WNW 00:01:10 11° WNW 00:01:10 11° WNW
Meteor 1-11 Rocket 4.0 00:00:41 10° N 00:06:16 69° NE 00:06:16 69° NE
Resurs 1-4 Rocket 4.4 00:09:02 10° ENE 00:11:25 13° E 00:11:25 13° E
Cosmos 1844 Rocket 3.0 00:12:33 62° NNW 00:12:33 62° NNW 00:17:33 10° NNE
Thor Agena Rocket 4.0 00:08:46 10° NNE 00:12:57 58° N 00:12:57 58° N
CZ-4C R/B 3.8 00:21:55 10° NNW 00:28:34 45° NE 00:36:19 10° ESE
Cosmos 2228 Rocket 4.4 00:32:50 38° N 00:32:50 38° N 00:35:36 10° N
CZ-2D R/B 3.9 00:29:06 10° NE 00:33:11 21° E 00:33:21 21° E
Cosmos 2082 Rocket 3.7 00:30:26 10° NNW 00:35:27 32° NE 00:38:00 22° E
Cosmos 1833 Rocket 3.1 00:31:50 10° NNW 00:37:25 56° ENE 00:37:44 55° ENE
SL-16 R/B 3.8 00:36:28 25° ESE 00:39:08 35° ENE 00:44:44 10° N
Cosmos 1538 Rocket 4.3 00:42:16 10° NNW 00:47:01 67° N 00:47:01 67° N
Cosmos 2154 Rocket 4.4 00:43:08 10° NNW 00:48:57 51° W 00:48:57 51° W
SJ 16-02 2.7 00:54:21 36° NE 00:54:21 36° NE 00:57:14 10° NNE
CZ-4 R/B 4.4 00:51:17 10° NNE 00:55:30 59° NE 00:55:30 59° NE
MOZ.5/SAFIR/RUBIN 5/SL-8 4.4 01:01:35 55° NNE 01:01:35 55° NNE 01:05:29 10° N
Cosmos 2278 Rocket 2.5 01:01:19 58° E 01:01:19 58° E 01:06:30 10° NNE
USA 305 4.5 01:01:54 32° NNW 01:02:16 32° N 01:06:10 10° ENE
ATLAS 5 CENTAUR R/B 2.2 01:03:06 10° NW 01:08:34 85° WNW 01:08:34 85° WNW
Cosmos 1680 Rocket 4.4 01:07:52 10° NNW 01:13:00 46° ENE 01:14:21 38° ESE
Meteor 2-9 Rocket 4.4 01:07:53 10° N 01:13:46 69° ENE 01:14:25 63° ESE
Cosmos 2341 Rocket 4.1 01:09:35 10° NNW 01:15:51 61° W 01:15:55 61° W
Cosmos 2181 Rocket 3.8 01:16:43 78° SSW 01:17:11 87° W 01:23:27 10° N
EO 1 Delta rocket 4.4 01:18:24 51° NW 01:18:24 51° NW 01:22:00 10° NNW
SL-8 Rocket 3.9 01:11:42 10° NNW 01:18:00 75° W 01:18:17 73° WSW
NPP 4.5 01:14:13 10° NNE 01:19:17 40° E 01:19:47 39° ESE
Helios 1B rocket 3.5 01:20:50 10° NNE 01:23:58 41° ENE 01:23:58 41° ENE
Cosmos 158 Rocket 4.2 01:20:54 10° NNW 01:24:53 58° NNW 01:24:53 58° NNW
COSMOS 2406 3.4 01:22:10 10° NNW 01:26:57 56° WNW 01:26:57 56° WNW
USA 281 3.9 01:29:59 38° W 01:29:59 38° W 01:35:20 10° NW
UNK 4.0 01:31:04 65° ENE 01:31:04 65° ENE 01:35:35 10° N
Cosmos 990 Rocket 4.3 01:33:48 54° ESE 01:33:55 54° ESE 01:39:01 10° NNE
Cosmos 1238 Rocket 4.1 01:27:36 10° NNW 01:33:59 62° W 01:34:28 60° WSW
Gbstr 26 Del rocket 3.9 01:36:15 47° W 01:37:58 68° NNW 01:43:18 10° ENE
Cosmos 923 Rocket 3.9 01:36:50 10° NNW 01:41:54 80° WNW 01:41:54 80° WNW
Cosmos 2084 4.5 01:47:50 37° E 01:47:50 37° E 01:51:04 10° NE
Cosmos 1937 Rocket 4.1 01:50:18 42° SE 01:51:02 45° ESE 01:55:55 10° NNE
Resurs 1-4 Rocket 1.9 01:46:43 10° NNE 01:52:01 89° WNW 01:52:30 75° SSW
Cosmos 1975 3.9 01:49:10 10° NNW 01:51:49 38° NNW 01:51:49 38° NNW
Cosmos 2242 Rocket 3.7 01:53:19 68° E 01:53:19 68° E 01:57:35 10° NNE
Cosmos 1908 Rocket 3.6 01:55:08 10° NNW 01:59:09 69° NW 01:59:09 69° NW
Cosmos 2218 Rocket 4.4 01:54:27 10° NNW 02:00:13 43° W 02:00:33 42° W
Cosmos 1898 Rocket 3.5 01:59:46 65° SSE 02:00:27 75° ESE 02:05:46 10° NNE
Cosmos 2366 rocket 4.5 01:59:44 10° NNW 02:05:24 40° W 02:05:43 40° W
Cosmos 1821 Rocket 3.9 02:06:31 10° N 02:12:53 78° W 02:15:09 43° S
CZ-2D R/B 2.3 02:08:14 10° N 02:13:39 63° WNW 02:14:41 52° WSW
CZ-4C R/B 4.3 02:13:25 27° SE 02:15:33 51° ENE 02:19:52 10° N
NOSS 3-4 (A) 3.8 02:08:50 10° NW 02:15:50 88° SW 02:23:40 10° SE
Okean 3 4.0 02:15:08 46° SE 02:15:55 54° E 02:20:07 10° NNE
NOSS 3-4 (C) 3.8 02:08:56 10° NW 02:15:57 88° SW 02:23:47 10° SE
Meteor 1-29 3.7 02:14:05 10° N 02:16:35 47° N 02:16:35 47° N
CZ-4C R/B 3.0 02:10:20 10° NW 02:17:32 61° WSW 02:25:47 10° SSE
Meteor 2-4 Rocket 3.8 02:16:41 51° SW 02:18:10 70° WNW 02:24:03 10° N
Cosmos 2082 Rocket 2.4 02:14:21 10° NW 02:19:44 48° WSW 02:19:47 48° WSW
ADEOS II 2.1 02:15:24 10° NNE 02:20:41 76° ESE 02:22:18 45° S
Cosmos 1833 Rocket 4.1 02:16:26 10° NW 02:19:24 22° WNW 02:19:24 22° WNW
Cosmos 2112 Rocket 4.0 02:16:24 10° NNW 02:21:38 59° WSW 02:22:16 54° SW
SL-16 R/B 2.8 02:21:33 43° SW 02:22:34 47° W 02:28:37 10° NNW
Meteor 1-13 Rocket 4.3 02:23:26 37° S 02:25:47 74° E 02:31:27 10° NNE
Cosmos 1703 Rocket 3.6 02:26:18 59° W 02:26:25 59° WNW 02:30:43 10° N
Meteor 1-28 Rocket 3.3 02:26:38 59° SE 02:27:09 69° ENE 02:30:51 10° N
BREEZE-M R/B 4.0 02:25:02 28° WNW 02:27:25 66° N 02:35:57 10° E
Cosmos 1782 Rocket 3.5 02:24:13 10° NNW 02:28:41 71° W 02:29:10 64° SW
ATLAS 2AS CENTAUR R/B 2.9 02:22:44 10° NW 02:30:12 75° NE 02:37:02 10° SE
Cosmos 1300 Rocket 4.3 02:25:49 10° N 02:30:12 53° ENE 02:33:03 20° SSE
SJ 16-02 3.1 02:31:19 19° WNW 02:31:48 20° NW 02:35:05 10° N
IRS-1D 3.6 02:27:40 10° NNE 02:32:53 81° ESE 02:34:54 39° S
ADEOS Rocket 3.3 02:28:40 12° SSE 02:34:52 82° ENE 02:42:11 10° NNW
Okean 1-7 3.3 02:35:30 48° W 02:35:40 48° WNW 02:39:49 10° N
Cosmos 1943 Rocket 2.4 02:33:30 34° S 02:35:53 63° ESE 02:41:28 10° NNE
Nadezhda 3 Rocket 4.1 02:34:16 39° SW 02:36:33 62° WNW 02:42:50 10° N
Landsat 4 4.4 02:35:08 10° N 02:38:27 39° WNW 02:38:27 39° WNW
IDEFIX/ARIANE 42P 3.0 02:34:58 10° NNE 02:40:08 58° E 02:43:11 24° S
Meteor 1-12 Rocket 4.3 02:34:28 10° NNW 02:40:29 75° W 02:43:55 26° S
Okean 2 Rocket 3.6 02:38:16 10° N 02:42:40 57° ENE 02:46:13 15° SSE
USA 305 4.3 02:38:58 10° NW 02:42:59 38° NNE 02:47:01 10° E
Cosmos 2278 Rocket 3.5 02:43:09 21° W 02:45:24 27° NW 02:50:13 10° N
Cosmos 1934 Rocket 3.9 02:42:16 10° NNW 02:48:34 74° W 02:52:44 22° S
USA 81 4.0 02:46:50 10° N 02:52:09 84° W 02:55:35 22° S
ATLAS 5 CENTAUR R/B 4.2 02:48:54 10° WNW 02:50:02 14° W 02:50:02 14° W
Cosmos 2221 Rocket 3.8 02:51:52 27° S 02:54:16 69° E 02:58:47 10° NNE
Cosmos 44 4.4 02:49:15 10° NNW 02:54:36 52° NE 02:59:47 10° ESE
Cosmos 1066 Rocket 4.2 02:56:04 27° SSW 02:59:22 80° W 03:05:16 10° N
Cosmos 1356 Rocket 3.3 02:55:29 10° NNW 02:59:37 66° W 03:01:21 33° S
Helios 1B rocket 4.2 02:56:55 10° NNW 02:59:45 18° WNW 03:00:16 18° WNW
USA 306 4.1 02:57:02 10° NW 03:01:09 42° NNE 03:05:16 10° E
USA 234 3.3 02:57:04 10° NE 03:03:38 76° SE 03:07:40 25° SW
MSX 4.0 03:00:09 10° NNE 03:05:55 70° ESE 03:10:44 15° S
DELTA 2 R/B (1) 4.2 03:05:23 30° SW 03:06:49 35° SSW 03:11:49 10° SE
Cosmos 2369 Rocket 2.5 03:04:53 20° S 03:08:43 62° ESE 03:14:17 10° NNE
CREW DRAGON DEMO-1 DEB 4.4 03:08:04 19° NW 03:09:22 27° N 03:11:46 10° ENE
Spot 1 4.4 03:09:23 33° SW 03:10:42 43° W 03:14:53 10° NNW
Cosmos 1378 3.9 03:11:08 31° W 03:11:38 33° WNW 03:15:00 10° N
X-37B 0.6 03:13:35 49° SW 03:14:12 63° S 03:17:23 10° E
Cosmos 1605 Rocket 3.9 03:10:09 10° NNW 03:16:15 71° W 03:22:23 10° S
Meteor 1-15 Rocket 4.2 03:10:54 10° NNW 03:16:24 62° W 03:21:54 10° S
IRS-1C 4.1 03:13:25 10° NNE 03:18:47 83° WNW 03:22:50 18° SSW
Cosmos 1378 Rocket 4.2 03:14:50 10° S 03:19:06 56° E 03:23:24 10° NNE
USA 307 3.9 03:15:29 10° NW 03:19:41 48° NNE 03:23:52 10° E
Cosmos 2297 4.2 03:18:41 24° WSW 03:21:53 47° NW 03:27:24 10° NNE
Cosmos 1048 Rocket 4.0 03:18:16 10° NNW 03:23:41 87° WSW 03:29:01 10° SSE
Gbstr 26 Del rocket 4.2 03:19:50 10° WNW 03:25:35 50° N 03:30:14 10° ENE
CZ-2C R/B 4.3 03:22:05 10° NNE 03:25:36 34° E 03:29:08 10° SSE
Meteor 1-23 Rocket 4.3 03:22:17 19° SSW 03:26:23 65° WNW 03:32:10 10° N
Sich 1 Rocket 4.4 03:24:57 10° NNW 03:29:05 34° W 03:31:21 22° SW
Cosmos 1818 3.8 03:25:03 10° NW 03:30:34 77° NE 03:36:02 10° SE
Resurs 1-4 Rocket 4.0 03:28:06 10° NNW 03:31:06 15° NW 03:33:35 11° W
USA 308 3.6 03:28:18 10° NW 03:32:32 55° NNE 03:36:45 10° ESE
Cosmos 1733 3.6 03:29:42 10° NNW 03:33:15 40° W 03:35:28 20° SSW
Cosmos 1674 Rocket 3.5 03:30:29 14° S 03:34:17 86° W 03:38:43 10° N
Cosmos 1766 3.6 03:32:00 10° NNW 03:35:50 46° W 03:39:06 14° SSW
Meteor 2-20 4.4 03:30:03 10° S 03:36:12 86° W 03:42:26 10° N
Cosmos 1656 Rocket 3.9 03:31:08 11° SSW 03:36:14 64° ESE 03:41:39 10° NNE
Cosmos 2100 Rocket 4.3 03:30:50 10° N 03:37:01 70° E 03:43:15 10° SSE
Meteor 2-10 4.3 03:34:20 10° N 03:40:05 83° ENE 03:45:36 10° SSE
Okean 2 3.6 03:36:02 10° S 03:40:10 71° E 03:44:20 10° NNE
Cosmos 494 Rocket 3.9 03:35:06 10° NNW 03:40:22 86° WSW 03:45:34 10° SSE
OE (NEXTSAT) 4.2 03:38:41 20° W 03:41:00 79° S 03:44:28 10° E
ARIANE 5 R/B 2.6 03:36:17 10° N 03:41:30 67° WNW 03:46:15 12° SSW
Cosmos 2173 Rocket 4.2 03:37:16 10° N 03:43:23 73° E 03:49:29 10° SSE
SL-08 R/B 3.5 03:39:06 10° S 03:43:49 50° W 03:48:31 10° NNW
Cosmos 1758 4.4 03:40:33 10° N 03:44:33 49° ENE 03:48:31 10° SSE
PAYLOAD A 4.2 03:43:35 10° NNE 03:48:41 71° ESE 03:53:32 10° S
SL-24 R/B - RUBIN 2 4.0 03:44:41 10° NW 03:50:05 56° WSW 03:54:50 10° SSE
CZ-2D R/B 4.3 03:50:47 10° NNW 03:52:38 12° NW 03:54:29 10° WNW
Cosmos 1459 Rocket 4.1 03:47:36 10° N 03:54:02 85° E 04:00:21 10° S
CZ-2D R/B 3.6 03:50:33 10° N 03:54:39 59° WNW 03:58:50 10° SSW
Spot 4 Rocket 4.0 03:53:01 10° N 03:58:11 75° WNW 04:03:19 10° SSW
Meteor 1-22 Rocket 4.5 03:52:47 10° NNW 03:58:14 51° W 04:03:52 10° SSW
Cosmos 1726 2.1 03:54:34 10° N 03:58:18 90° W 04:02:02 10° S
PSLV R/B 4.4 03:55:14 10° NNE 03:59:22 50° E 04:03:26 10° S
ADEOS II 3.8 03:56:17 10° NNW 03:59:47 18° WNW 04:03:16 10° W
Cosmos 1455 Rocket 4.3 03:56:56 10° N 04:01:07 44° ENE 04:05:15 10° SSE
Cosmos 1727 Rocket 4.1 03:55:06 10° SSW 04:01:14 59° WNW 04:07:28 10° N
Cosmos 1461 3.9 03:56:49 10° SSW 04:01:23 51° ESE 04:05:56 10° NE
Cosmos 1470 2.7 03:58:32 10° NNW 04:02:24 68° W 04:06:13 10° S
Milstar 3 4.5 03:58:20 11° SW 04:03:27 21° S 04:10:57 10° SE
Cosmos 1315 Rocket 4.2 04:00:52 10° N 04:04:37 42° ENE 04:08:21 10° SSE
Cosmos 2298 Rocket 4.4 04:00:04 11° SW 04:04:58 51° WNW 04:10:10 10° NNE
CZ-4C R/B 4.4 04:01:18 10° WNW 04:05:11 15° WSW 04:09:16 10° SW
SL-24 R/B 4.1 04:02:36 10° SSE 04:06:28 69° ENE 04:10:08 10° N
GP-B 3.1 04:04:01 10° N 04:08:28 75° W 04:12:53 10° S
Cosmos 1707 2.7 04:07:31 10° S 04:11:22 87° W 04:15:15 10° N
CZ-4B R/B 4.4 04:10:01 10° N 04:14:09 30° WNW 04:18:19 10° SW
ALOS 2.7 04:11:01 10° NNE 04:15:41 66° ESE 04:20:19 10° S
Cosmos 1867 4.3 04:11:45 10° SSW 04:17:01 54° ESE 04:22:22 10° NE
Cosmos 1125 Rocket 3.8 04:14:04 10° SW 04:19:13 52° WNW 04:24:22 10° NNE
IDEFIX/ARIANE 42P 3.9 04:15:20 10° N 04:19:20 23° WNW 04:23:21 10° WSW
Cosmos 1943 Rocket 3.5 04:15:22 10° WSW 04:20:04 26° NW 04:24:47 10° N
ATLAS 2AS CENTAUR R/B 3.5 04:14:36 10° NW 04:20:25 27° WSW 04:25:54 10° SSW
USA 305 2.9 04:18:57 10° WNW 04:23:14 76° SW 04:27:30 10° SE
Cosmos 1269 Rocket 4.1 04:18:28 10° NNW 04:23:49 86° WSW 04:29:06 10° SSE
Cosmos 1975 Rocket 3.2 04:21:30 10° S 04:25:57 85° E 04:30:23 10° N
Cosmos 1400 Rocket 3.5 04:22:40 10° NNW 04:26:26 35° W 04:30:11 10° SSW
Meteor 2-11 Rocket 4.5 04:20:28 10° NNW 04:26:36 77° W 04:32:44 10° S
Landsat 5 3.9 04:22:55 10° SSE 04:27:25 80° ENE 04:31:57 10° NNW
CZ-4C R/B 3.4 04:25:10 10° SSE 04:28:36 68° ENE 04:31:58 10° N
